Reflectivity
-20 -20 -20 -5 -7 12 12 17 6 -20 -17 -19 6 20 -20 -10 1 -20 -20 -20 -12 -20 -20 -20 -20 -7 -20 -20 -18 -20 -20 -20 -1 27 -2 17 14 -20 -19 2 -20 -20 -20 1 13 29 -6
-20 -20 -20 -20 -3 14 14 17 15 8 -20 -2 1 14 -20 -1 -0 -20 -20 -20 -20 -20 -20 -20 -20 -6 -20 -20 -20 -20 -20 -1 -7 18 -20 21 14 -20 -18 -5 10 -20 2 -20 22 30 11
-20 -20 -20 -20 -6 9 10 13 11 9 12 -20 10 -8 -11 -20 -5 -20 -20 -20 -20 -20 -20 -20 -20 -20 -20 -20 -20 -20 -20 1 7 7 -20 18 15 4 -20 6 -20 -20 14 -11 21 22 -3
-20 -20 -20 -20 -2 -1 16 9 14 5 8 8 -5 15 12 7 5 -20 -20 -6 6 -20 -20 -20 19 -20 -20 -20 -20 -20 -20 -20 -19 -17 -20 28 22 -5 22 -20 -20 15 14 16 4 30 32
-20 -20 -20 -20 -14 4 12 -18 -7 16 10 10 -6 8 3 15 -7 -15 -20 -20 -20 -20 -20 -20 -20 -20 -20 -20 -20 -20 -20 -20 -9 28 -18 15 29 -20 18 9 -7 26 -18 -20 -20 14 8
-20 -20 -20 -20 -20 -4 2 -6 -1 15 13 7 9 -0 14 15 4 -3 -20 -20 -20 -20 -20 -20 -20 -20 -20 -9 8 -20 -20 -0 2 22 -8 12 41 -12 7 2 -20 -20 -20 -20 -20 -20 -20
-20 -20 -20 -20 -20 -20 0 -1 -3 -2 4 8 12 2 14 17 8 3 -20 -20 -20 -20 -20 -20 -20 -11 -20 12 -20 21 30 3 -2 23 21 34 38 -14 -20 -20 -20 -20 -20 -20 -20 -20 -18
-20 -20 -20 -20 -20 -20 -9 -2 -20 -12 16 8 12 7 15 16 -1 -11 -20 -20 -20 -20 -20 -20 -20 -20 -20 13 30 9 -19 -11 39 12 3 38 27 -20 -20 -20 -20 -20 -20 -20 -20 -20 -20
9 -20 -20 -20 -20 -20 -7 -6 -20 -20 -10 12 -3 13 14 17 -20 -20 -20 -20 -20 -20 -16 6 15 -20 -5 -4 8 -20 -20 28 27 22 34 25 -13 2 12 -20 -20 -20 -20 -20 -20 -20 -20
7 -20 -20 -20 -20 -20 -20 -18 -20 -20 -8 0 -3 17 11 13 -20 -20 -20 -20 -20 -20 -20 19 -7 14 -10 -20 6 -19 -20 -19 -15 31 30 30 -20 -14 15 1 -20 -20 -20 -20 -20 -20 -20
-19 -20 -20 -20 -20 -20 -20 -20 -20 -20 -20 -4 -18 16 7 1 -20 -20 -20 -20 -20 -20 -20 -20 -11 18 -16 -6 -20 -20 -20 -20 8 22 28 31 -13 -20 10 -4 -20 -20 -20 -20 -20 -20 -20
-20 -20 -20 -20 -20 -20 -20 -20 -20 -20 -20 -20 -20 -4 -5 -20 -20 -20 -20 -20 -20 -20 -20 -20 -2 -14 5 11 -20 -20 -2 -18 2 6 24 9 -4 -20 -4 -20 -20 -20 -20 -20 -20 -20 -20
-20 -20 -20 -20 -20 -20 -20 -20 -20 -20 -20 -20 -20 -20 -20 -20 -20 -20 -20 -20 -20 -20 -20 -20 -15 -20 -1 7 9 -12 -6 3 31 25 36 24 19 -20 -20 -2 -20 -20 -20 -20 -20 -20 -20
-20 -20 -20 -20 -20 -20 -20 -20 -20 -20 -20 -20 -20 -20 -20 -20 -20 -20 -10 -20 -20 -20 -20 -13 14 -20 -4 6 18 17 17 29 18 -14 1 11 15 -16 -20 -20 -16 -20 -20 -20 -20 -20 -20
-20 -20 -20 -20 -20 -20 -20 -20 -20 -20 -20 -20 -20 -20 -20 -20 -20 -20 -20 -20 -20 -20 -20 -20 -9 -20 -17 -20 -12 6 -20 -20 -16 -20 -9 -20 -12 -20 -20 -20 -20 -20 -20 -20 -20 -20 -20
-20 -20 -20 -20 -20 -20 -20 -20 -20 -20 -20 -20 -20 -20 -20 -20 -20 -14 -20 -20 -20 -20 -20 -20 -20 -20 -18 -15 -20 -20 -20 -20 -20 -20 -20 -20 -14 -20 -20 -20 -20 -20 -20 -11 -20 -20 -20
-20 -20 -20 -20 -20 -20 -20 -20 -20 -20 -20 -20 -20 -20 -20 -20 -17 -20 -20 -20 -20 -20 -20 -20 -20 -20 -20 -20 -20 -20 -20 -20 -20 -20 -20 -20 -20 -5 -20 -20 -20 -20 -20 -20 -20 -20 -20
-20 -20 -20 -20 -20 -20 -20 -20 -20 -20 -20 -20 -20 -20 -20 -20 -10 -8 -20 -20 -20 -20 -20 -20 -20 -20 -20 -20 -20 -20 -20 -20 -20 -20 -20 -20 -20 -9 -18 -20 -20 -20 -20 -20 -20 -20 -20
-20 -20 -20 -20 -20 -20 -20 -20 -20 -20 -20 -20 -20 -20 -20 -20 -20 -20 -20 -20 -20 -20 -20 -20 -20 -20 -20 -20 -20 -20 -20 -20 -20 -20 -20 -20 -20 -8 -8 -20 -20 -20 -16 -18 -20 -20 -20
-20 -20 -20 -20 -20 -20 -20 -20 -20 -20 -20 -20 -20 -20 -20 -20 -20 -20 -20 -20 -20 -20 -20 -20 -20 -20 -20 -20 -20 -20 -20 -20 -20 -20 -20 -20 -20 -20 -20 -20 -20 -1 -19 -9 -14 5 -8
-20 -20 -20 -20 -20 -20 -20 -20 -20 -20 -20 -20 -20 -20 -20 -20 -20 -20 -20 -20 -20 -20 -20 -20 -20 -20 -20 -20 -20 -20 -20 -20 -20 -20 -20 -20 -20 -20 -20 -20 -20 -20 -20 -20 4 -18 -8
-20 -20 -20 -20 -20 -20 -20 -20 -20 -20 -20 -20 -20 -20 -20 -20 -20 -20 -20 -20 -20 -20 -20 -20 -20 -20 -20 -20 -20 -20 -20 -20 -20 -20 2 7 -20 -20 -20 -20 -20 -20 -20 -20 -20 -20 -20
-20 -20 -20 -20 -20 -20 -20 -20 -20 -20 -20 -20 -20 -20 -20 -20 -20 -20 -20 -20 -20 -20 -20 -20 -20 -20 -20 -20 -20 -20 -20 -20 -20 -20 -20 -20 -20 -20 -20 -20 -20 -20 -20 -20 -20 -20 -20
-20 -20 -20 -20 -20 -20 -20 -20 -20 -20 -20 -20 -20 -20 -20 -20 -20 -20 -20 -20 -20 -20 -20 -20 -20 -20 -20 -20 -20 -20 -20 -20 -20 -20 -20 -20 -20 -20 -20 -20 -20 -20 -20 -20 -20 -20 -20
-20 -20 -20 -20 -20 -20 -20 -20 -20 -20 -20 -20 -20 -20 -20 -20 -20 -20 -20 -20 -20 -20 -20 -20 -19 -20 -20 -20 -20 -20 -20 -20 -20 -20 -20 -20 -20 -20 -20 -20 -20 -20 -20 -20 -20 -20 -20
-16 -20 -20 -20 -20 -20 -20 -20 -20 -20 -20 -20 -20 -20 -20 -20 -20 -20 -20 -20 -20 -20 -20 -20 -20 -18 -20 -20 -20 -20 -20 -20 -20 -20 -20 -20 -20 -20 -20 -20 -20 -20 -20 -20 -20 -20 -20
-7 -20 -20 -20 -20 -20 -20 -20 -20 -20 -20 -20 -20 -20 -20 -20 -20 -20 -20 -20 -20 -20 -20 -20 -20 -20 -6 -20 -3 -10 -19 -20 -20 -20 -20 -20 -20 -20 -19 -20 -20 -20 -20 -20 -20 -20 -20
-17 -20 -20 -20 -20 -20 -20 -20 -20 -20 -20 -20 -20 -20 -20 -20 -20 -20 -20 -20 -20 -20 -20 -20 -20 -16 34 -11 -8 -20 -20 -20 -20 -20 -20 -20 -20 -14 -9 3 -16 -20 -20 -20 -20 -20 -20
-20 -20 -20 -20 -20 -20 -20 -20 -20 -20 -20 -20 -20 -20 -20 -20 -20 -20 -20 -20 -20 -20 -20 -20 -13 24 22 19 -2 -20 -20 -20 -20 -20 -20 -20 -20 -20 -20 -20 -20 -20 -20 -20 -20 -20 -20
Wind_Speed
10 11 12 12 14 15 16 16 16 17 17 18 19 16 15 14 13 12 12 11 11 10 8 6 4 5 4 2 6 6 9 12 3 7 6 6 8 5 6 5 6 3 7 12 6 5 5
9 11 12 12 13 15 14 15 15 15 16 16 18 17 13 13 12 12 11 11 9 8 5 4 2 5 4 2 3 3 5 1 8 4 8 10 6 6 4 6 7 7 5 13 11 10 6
8 9 11 12 13 14 15 15 16 16 15 16 15 17 15 13 11 11 12 11 9 7 5 5 3 2 2 8 1 7 3 1 2 5 6 14 6 7 5 4 4 2 7 6 8 5 4
8 8 10 12 12 14 15 14 15 16 16 15 17 16 16 12 14 11 12 12 11 6 5 5 2 3 4 3 1 4 3 3 6 6 11 14 3 3 2 2 6 5 6 5 5 11 4
8 9 9 11 12 14 14 16 16 16 16 14 15 15 16 14 13 11 12 13 11 6 2 2 2 1 5 4 2 3 3 3 10 4 7 10 3 3 1 7 4 5 6 6 5 15 10
8 9 9 11 11 14 14 15 17 17 16 16 16 16 14 14 12 12 13 10 3 2 3 1 1 2 1 3 4 2 4 5 4 12 8 4 4 4 2 7 20 11 6 3 6 15 9
8 8 9 10 11 13 14 16 17 18 17 16 16 15 15 13 11 11 6 3 4 3 3 2 5 4 4 3 2 2 2 4 2 7 7 6 6 14 7 4 1 8 7 6 2 6 6
8 7 8 10 11 12 14 15 17 18 18 17 17 17 15 12 10 9 2 3 1 2 3 2 3 2 0 1 4 1 1 3 4 11 13 4 9 6 6 5 6 8 7 5 2 4 9
9 7 8 9 11 13 14 15 17 18 19 18 17 17 15 10 9 3 2 4 2 3 2 4 1 2 3 3 3 2 0 3 7 8 7 5 9 8 6 5 6 3 8 6 6 5 2
9 7 7 8 10 13 14 15 17 19 19 18 18 17 13 5 1 1 1 3 2 2 4 4 1 1 1 3 3 1 1 2 4 6 8 3 9 8 6 6 5 3 5 6 8 6 5
9 7 6 8 10 12 14 16 17 19 20 20 20 15 7 2 3 2 2 4 3 4 6 5 2 2 3 1 4 3 3 4 6 7 3 3 10 9 5 6 3 2 5 6 4 4 3
9 7 5 7 10 11 13 16 17 18 19 20 19 11 3 3 1 1 3 5 4 6 2 3 1 2 3 1 2 1 3 1 1 5 4 4 2 4 2 3 4 6 7 8 5 3 2
8 6 4 7 9 12 13 15 17 18 20 20 17 4 6 4 3 4 4 3 5 7 2 3 3 2 1 4 4 2 2 5 2 6 4 6 4 2 2 8 4 5 5 3 3 2 5
9 6 4 6 8 11 13 15 17 18 20 20 12 4 2 2 3 4 2 5 7 2 2 1 1 2 4 3 5 2 5 3 4 3 5 4 6 2 5 3 6 2 4 6 6 4 4
9 6 4 6 7 10 13 15 17 18 18 18 3 1 1 2 3 2 4 5 6 5 4 3 2 3 2 1 2 2 3 2 3 0 6 6 3 1 3 2 2 4 2 3 7 2 3
10 6 4 5 7 10 13 15 16 18 18 12 2 1 0 1 1 2 5 2 1 3 2 0 2 4 3 2 2 2 2 3 3 3 2 4 7 1 1 1 5 4 4 4 4 1 3
11 7 4 4 7 10 12 15 17 19 18 4 3 2 1 1 0 4 3 6 3 4 4 3 2 2 4 5 2 2 4 3 4 3 4 4 4 2 4 3 6 2 2 2 2 4 4
12 8 4 2 6 9 12 14 17 19 15 7 2 2 2 1 1 1 1 5 3 3 3 1 2 2 3 5 2 2 4 2 4 6 5 3 5 3 2 1 1 2 4 5 4 4 1
14 10 5 1 5 8 11 14 16 17 8 4 2 1 3 1 1 3 5 3 1 2 2 3 1 2 1 2 3 1 1 4 5 5 7 7 1 5 2 3 1 4 7 4 4 4 6
15 11 7 3 4 7 11 14 16 16 3 5 3 2 4 3 1 1 3 3 2 1 2 2 1 1 2 3 4 4 2 3 1 1 3 5 3 6 7 5 4 5 14 11 10 8 7
16 12 9 5 3 7 10 14 16 16 2 5 4 1 2 3 4 3 2 4 3 2 2 4 3 4 1 2 2 3 2 1 4 3 4 3 3 3 3 2 4 3 6 17 16 15 14
18 14 11 7 4 6 10 13 16 16 5 6 3 3 3 1 2 3 6 4 6 6 4 3 3 3 1 2 2 4 4 3 4 1 3 2 3 3 1 2 2 3 7 10 17 20 17
19 16 12 9 7 7 9 12 15 18 6 4 1 1 3 3 2 1 2 3 4 5 4 6 3 1 3 2 2 3 3 1 2 7 4 3 5 3 4 3 3 6 12 13 6 7 15
21 18 14 11 9 7 9 12 14 15 10 4 2 3 3 1 1 2 2 2 3 5 2 5 4 2 2 6 3 2 6 5 4 3 3 5 5 3 3 2 2 7 2 5 11 9 10
23 19 15 12 10 8 8 10 12 13 11 5 2 3 2 2 0 2 5 3 5 5 2 2 4 2 5 3 3 3 5 3 0 1 2 2 5 3 2 3 7 2 1 4 5 5 5
24 21 17 14 11 9 9 10 10 11 8 5 2 2 3 4 1 0 2 3 3 5 6 3 4 6 3 1 3 3 3 3 2 0 4 3 2 4 2 1 5 5 2 3 4 4 3
25 22 18 15 12 9 8 7 9 9 8 4 2 2 4 4 1 3 4 2 2 3 2 4 7 7 3 1 2 3 3 3 4 5 4 3 1 4 3 3 7 7 5 3 2 6 3
24 23 19 16 13 10 8 8 8 7 7 4 0 1 3 3 3 2 3 2 3 1 1 4 2 2 3 1 3 3 3 4 1 3 5 6 5 4 4 3 8 5 1 4 6 3 3
25 23 20 17 14 11 8 8 7 7 6 5 3 3 1 3 3 1 2 1 4 4 3 3 1 1 3 2 2 1 0 1 2 3 2 3 7 6 8 7 4 4 6 4 4 4 4
Wind_Direction
340 339 343 345 352 352 352 355 355 350 353 344 342 355 360 2 5 5 1 5 13 12 17 6 6 116 86 60 256 302 335 13 226 180 184 199 176 146 164 173 137 233 173 197 154 126 87
332 334 340 340 349 351 352 351 349 352 348 346 344 344 354 349 347 351 351 349 359 5 4 5 44 111 93 227 241 3 342 36 66 325 189 194 223 153 180 178 177 184 190 175 148 159 138
323 331 335 334 346 347 348 351 348 345 344 346 345 339 344 340 335 337 335 332 337 335 340 356 117 110 142 239 280 308 305 224 70 276 216 189 242 161 168 135 158 358 111 124 161 146 115
313 323 327 329 342 341 345 349 348 342 344 346 341 340 339 339 326 330 320 319 322 334 300 293 327 37 255 258 263 305 310 325 311 244 194 173 220 242 231 97 94 160 117 148 182 163 103
306 313 321 328 337 337 341 343 345 346 343 345 338 339 330 335 321 329 315 310 310 323 350 126 71 114 283 305 65 276 331 20 317 102 110 143 8 185 126 118 113 191 162 148 151 182 150
293 304 316 323 333 332 340 341 342 343 345 343 337 335 329 327 321 324 317 315 300 20 7 204 221 356 308 341 289 41 349 24 352 113 92 117 292 151 150 162 186 166 132 145 154 193 174
278 295 310 319 327 331 338 339 338 339 342 340 334 331 327 319 314 324 345 21 27 338 56 262 274 261 292 298 225 72 139 217 328 139 141 150 218 193 183 169 103 114 111 144 95 179 143
265 283 302 313 321 330 335 338 336 337 338 339 336 331 327 318 311 330 62 92 82 158 326 282 308 260 209 284 156 131 231 172 239 116 109 155 200 192 133 126 110 120 126 156 96 171 187
252 271 295 309 317 326 334 336 333 334 337 338 338 333 321 316 311 21 123 152 110 132 80 315 289 316 302 300 62 129 36 173 82 95 117 148 161 152 132 125 107 60 150 167 152 112 49
240 261 288 303 312 320 331 332 333 333 337 338 338 335 321 310 38 221 292 146 81 94 52 17 289 37 301 340 65 98 227 179 86 109 112 272 145 139 148 99 114 98 161 128 135 121 183
230 249 280 299 309 317 328 333 333 335 338 339 339 336 323 204 171 136 233 120 90 55 58 9 339 149 211 333 141 38 279 24 98 137 144 198 151 132 142 140 108 153 141 117 87 90 114
224 242 274 295 309 317 328 331 333 337 339 341 340 338 122 80 71 243 123 77 54 51 321 23 255 207 204 137 80 98 35 65 262 106 71 79 31 61 99 79 70 154 80 55 57 79 348
217 236 263 289 310 315 329 331 332 339 342 343 344 354 141 140 159 152 116 58 36 79 298 348 5 317 86 47 100 55 359 99 155 128 146 76 34 28 30 90 41 72 76 44 18 3 219
207 227 255 290 309 319 329 333 334 341 343 341 346 95 172 150 162 147 120 51 68 272 224 274 219 45 57 355 49 131 120 159 193 116 84 123 144 17 356 98 155 177 139 147 178 200 247
198 217 246 291 317 329 333 336 338 341 345 341 29 4 75 296 181 180 80 53 192 209 187 199 112 94 38 162 121 138 149 171 137 85 123 125 70 63 50 55 76 184 142 153 108 35 47
190 203 243 296 331 337 340 339 343 345 347 355 91 73 191 303 323 58 80 167 178 200 187 49 249 155 122 149 97 75 122 184 117 20 71 157 120 320 359 155 37 90 161 62 4 130 269
185 190 234 308 346 341 346 346 351 350 350 21 53 55 206 12 61 41 135 204 219 212 184 176 313 343 127 179 173 208 178 138 142 133 97 123 91 104 120 192 162 98 121 85 131 142 183
182 185 200 334 354 346 353 354 357 355 356 51 81 37 356 36 56 69 168 195 182 152 156 286 126 297 157 159 137 281 196 241 154 147 101 136 121 142 144 290 212 190 195 156 148 225 152
179 182 165 44 11 353 357 359 358 358 14 120 78 279 17 81 98 324 296 292 245 118 144 125 44 63 15 109 105 55 355 348 148 149 161 171 152 119 71 339 338 195 196 200 96 61 193
174 174 151 102 34 3 4 3 0 360 51 88 82 23 332 52 42 49 349 2 329 336 80 89 110 46 50 60 22 139 101 347 83 170 127 92 123 147 182 192 145 198 212 198 199 232 224
171 165 147 121 62 21 11 8 4 2 62 92 28 79 160 319 9 358 21 348 311 23 4 33 72 78 122 119 74 116 130 106 30 113 44 84 164 101 267 232 147 214 211 215 221 227 233
166 158 151 128 88 43 20 18 13 11 105 78 110 93 11 353 311 346 11 11 12 329 353 10 74 341 358 135 167 199 141 181 184 126 118 15 151 131 156 6 203 272 227 217 230 237 250
159 157 148 134 108 67 39 34 28 15 78 93 314 37 114 337 348 70 34 350 16 348 45 55 335 43 53 61 351 320 194 189 202 154 136 118 129 82 274 357 297 277 226 205 189 219 222
156 158 150 139 115 88 59 50 46 44 62 111 155 111 93 56 81 95 8 314 346 329 267 321 355 357 330 306 234 49 49 75 125 69 122 128 105 95 215 8 324 244 196 186 212 240 218
156 158 152 142 121 102 73 66 58 61 67 82 127 102 106 120 1 65 1 356 323 311 340 286 343 330 299 298 67 53 354 16 304 167 186 120 122 97 144 200 290 312 187 153 177 283 216
157 157 153 144 130 117 85 77 62 62 89 87 79 117 102 114 25 105 10 360 22 346 347 315 339 315 313 40 73 148 198 232 258 50 37 129 97 121 122 170 249 253 272 170 145 294 270
158 157 153 146 136 123 101 84 64 63 68 99 72 84 89 97 307 56 72 70 27 31 284 302 337 344 342 126 141 176 215 186 208 180 171 136 104 169 197 251 284 253 274 175 93 243 295
159 157 153 150 140 130 110 97 81 73 72 90 82 22 99 99 320 58 37 49 11 103 213 308 290 48 297 165 158 201 156 223 172 199 179 164 157 194 167 204 271 197 163 183 221 283 263
157 156 157 154 145 138 118 103 92 87 82 99 76 342 334 97 194 175 269 229 196 222 122 337 100 239 15 299 41 75 184 52 170 249 26 213 183 184 177 212 240 227 228 243 195 230 280